CW1129 Weather Reports


Display with metric or nautical units.
time (UTC)temp
F
wind
direction
speed
MPH
gust
MPH
rain 1hr
in
rain 24hr
in
rain mn
in
humidity
%
barometer
mb
20220626120018 72 0.0 0.0 0.00 0.00 0.00 70 1015.8
20220626115018 71 0.0 0.0 0.00 0.00 0.00 72 1015.8
20220626114018 70 0.0 0.0 0.00 0.00 0.00 72 1015.8
20220626113018 70 0.0 0.0 0.00 0.00 0.00 72 1015.8
20220626112018 69 0.0 0.0 0.00 0.00 0.00 74 1015.8
20220626111018 68 0.0 0.0 0.00 0.00 0.00 76 1015.8
20220626110018 68 0.0 0.0 0.00 0.00 0.00 76 1015.8
20220626105018 67 0.0 0.0 0.00 0.00 0.00 77 1015.9
20220626104020 67 0.0 0.0 0.00 0.00 0.00 79 1015.9
20220626103020 67 0.0 0.0 0.00 0.00 0.00 78 1015.9
20220626102020 67 0.0 0.0 0.00 0.00 0.00 78 1015.9
20220626101020 67 0.0 0.0 0.00 0.00 0.00 77 1015.7
20220626100020 67 0.0 0.0 0.00 0.00 0.00 77 1015.7
20220626095020 67 0.0 0.0 0.00 0.00 0.00 76 1015.6
20220626094020 67 0.0 0.0 0.00 0.00 0.00 75 1015.4
20220626093020 68 0.0 0.0 0.00 0.00 0.00 75 1015.4
20220626092019 68 0.0 0.0 0.00 0.00 0.00 75 1015.3
20220626091020 68 0.0 0.0 0.00 0.00 0.00 74 1015.2
20220626090019 68 0.0 0.0 0.00 0.00 0.00 73 1015.2
20220626085017 68 0.0 0.0 0.00 0.00 0.00 72 1015.2
20220626084016 68 0.0 0.0 0.00 0.00 0.00 72 1015.0
20220626083016 68 0.0 0.0 0.00 0.00 0.00 73 1015.0
20220626082019 68 0.0 0.0 0.00 0.00 0.00 74 1014.8
20220626081019 67 0.0 0.0 0.00 0.00 0.00 75 1014.9
20220626080020 67 0.0 0.0 0.00 0.00 0.00 76 1014.9
20220626075019 68 0.0 0.0 0.00 0.00 0.00 76 1014.8
20220626074019 68 0.0 0.0 0.00 0.00 0.00 75 1014.7
20220626073020 68 0.0 0.0 0.00 0.00 0.00 75 1014.7
20220626072019 68 0.0 0.0 0.00 0.00 0.00 74 1014.8
20220626071019 68 0.0 0.0 0.00 0.00 0.00 75 1014.9
20220626070019 68 0.0 0.0 0.00 0.00 0.00 75 1014.9
20220626065019 68 0.0 0.0 0.00 0.00 0.00 74 1015.1
20220626064019 68 0.0 0.0 0.00 0.00 0.00 74 1015.2
20220626063019 69 0.0 0.0 0.00 0.00 0.00 73 1015.2
20220626062019 69 0.0 0.0 0.00 0.00 0.00 72 1015.4
20220626061019 69 0.0 0.0 0.00 0.00 0.00 72 1015.4
20220626060019 69 0.0 0.0 0.00 0.00 0.00 71 1015.4
20220626055019 70 0.0 0.0 0.00 0.00 0.00 70 1015.3
20220626054019 70 0.0 0.0 0.00 0.00 0.00 69 1015.4
20220626053019 70 0.0 0.0 0.00 0.00 0.00 69 1015.4
20220626052019 71 0.0 0.0 0.00 0.00 0.00 68 1015.3
20220626051019 71 0.0 0.0 0.00 0.00 0.00 67 1015.2
20220626050019 71 0.0 0.0 0.00 0.00 0.00 66 1015.2
20220626045019 71 0.0 0.0 0.00 0.00 0.00 66 1015.1
20220626044019 71 0.0 0.0 0.00 0.00 0.00 65 1015.1
20220626043019 71 0.0 0.0 0.00 0.00 0.00 64 1015.1
20220626042019 72 0.0 0.0 0.00 0.00 0.00 63 1015.1
20220626041018 72 0.0 0.0 0.00 0.00 0.00 62 1015.0
20220626040018 72 0.0 0.0 0.00 0.00 0.00 60 1015.0
20220626035019 72 0.0 0.0 0.00 0.00 0.00 59 1015.1
20220626034018 73 0.0 0.0 0.00 0.00 0.00 58 1015.2
20220626033019 73 0.0 0.0 0.00 0.00 0.00 57 1015.3
20220626032018 73 0.0 0.0 0.00 0.00 0.00 56 1015.3
20220626031018 73 0.0 0.0 0.00 0.00 0.00 55 1015.2
20220626030018 74 0.0 0.0 0.00 0.00 0.00 54 1015.2
20220626025018 74 0.0 0.0 0.00 0.00 0.00 52 1015.2
20220626024018 74 0.0 0.0 0.00 0.00 0.00 51 1015.2
20220626023018 75 0.0 0.0 0.00 0.00 0.00 50 1015.2
20220626022018 75 0.0 0.0 0.00 0.00 0.00 48 1015.3
20220626021018 75 0.0 0.0 0.00 0.00 0.00 47 1015.3
20220626020018 76 0.0 0.0 0.00 0.00 0.00 46 1015.3
20220626015018 76 0.0 0.0 0.00 0.00 0.00 45 1015.3
20220626014018 76 0.0 0.0 0.00 0.00 0.00 44 1015.0
20220626013018 77 0.0 0.0 0.00 0.00 0.00 44 1015.0
20220626012018 77 0.0 0.0 0.00 0.00 0.00 45 1014.9
20220626011018 77 0.0 0.0 0.00 0.00 0.00 45 1014.8
20220626010020 77 0.0 0.0 0.00 0.00 0.00 45 1014.8
20220626005017 78 0.0 0.0 0.00 0.00 0.00 45 1014.7
20220626004017 79 0.0 0.0 0.00 0.00 0.00 44 1014.7
20220626003017 79 0.0 0.0 0.00 0.00 0.00 44 1014.7
20220626002020 80 0.0 0.0 0.00 0.00 0.00 44 1014.5
20220626001020 81 0.0 0.0 0.00 0.00 0.00 43 1014.7
20220626000020 81 0.0 0.0 0.00 0.00 0.00 42 1014.7
20220625235020 82 0.0 0.0 0.00 0.00 0.00 41 1014.6
20220625234020 82 0.0 0.0 0.00 0.00 0.00 39 1014.6
20220625233019 83 0.0 0.0 0.00 0.00 0.00 40 1014.6
20220625232020 84 0.0 0.0 0.00 0.00 0.00 36 1014.6
20220625231019 84 0.0 0.0 0.00 0.00 0.00 36 1014.6
20220625230019 84 0.0 0.0 0.00 0.00 0.00 36 1014.6
20220625225020 85 0.0 0.0 0.00 0.00 0.00 36 1014.5
20220625224019 85 0.0 0.0 0.00 0.00 0.00 35 1014.5
20220625223019 85 0.0 0.0 0.00 0.00 0.00 34 1014.5
20220625222020 86 0.0 0.0 0.00 0.00 0.00 34 1014.5
20220625221019 86 0.0 0.0 0.00 0.00 0.00 35 1014.5
20220625220019 87 0.0 0.0 0.00 0.00 0.00 33 1014.5
20220625215019 87 0.0 0.0 0.00 0.00 0.00 33 1014.6
20220625214019 88 0.0 0.0 0.00 0.00 0.00 31 1014.5
20220625213019 90 0.0 0.0 0.00 0.00 0.00 28 1014.5
20220625212019 90 0.0 0.0 0.00 0.00 0.00 28 1014.5
20220625211019 90 0.0 0.0 0.00 0.00 0.00 27 1014.5
20220625210019 90 0.0 0.0 0.00 0.00 0.00 27 1014.5
20220625205019 90 0.0 0.0 0.00 0.00 0.00 28 1014.4
20220625204019 91 0.0 0.0 0.00 0.00 0.00 27 1014.6
20220625203019 91 0.0 0.0 0.00 0.00 0.00 27 1014.6
20220625202019 90 0.0 0.0 0.00 0.00 0.00 28 1014.3
20220625201019 90 0.0 0.0 0.00 0.00 0.00 28 1014.2
20220625200019 90 0.0 0.0 0.00 0.00 0.00 28 1014.2
20220625195019 91 0.0 0.0 0.00 0.00 0.00 27 1014.4
20220625194019 92 0.0 0.0 0.00 0.00 0.00 27 1014.7
20220625193019 91 0.0 0.0 0.00 0.00 0.00 28 1014.7
20220625192019 91 0.0 0.0 0.00 0.00 0.00 28 1014.9
20220625191019 90 0.0 0.0 0.00 0.00 0.00 28 1014.9
20220625190019 89 0.0 0.0 0.00 0.00 0.00 29 1015.0
20220625185019 90 0.0 0.0 0.00 0.00 0.00 29 1015.2
20220625184019 90 0.0 0.0 0.00 0.00 0.00 28 1015.2
20220625183019 90 0.0 0.0 0.00 0.00 0.00 28 1015.2
20220625182019 89 0.0 0.0 0.00 0.00 0.00 31 1015.3
20220625181019 88 0.0 0.0 0.00 0.00 0.00 32 1015.5
20220625180018 87 0.0 0.0 0.00 0.00 0.00 30 1015.5
20220625175019 88 0.0 0.0 0.00 0.00 0.00 28 1015.5
20220625174018 88 0.0 0.0 0.00 0.00 0.00 31 1015.4
20220625173018 88 0.0 0.0 0.00 0.00 0.00 30 1015.4
20220625172019 87 0.0 0.0 0.00 0.00 0.00 32 1015.6
20220625171019 87 0.0 0.0 0.00 0.00 0.00 35 1015.6
20220625170019 87 0.0 0.0 0.00 0.00 0.00 32 1015.6
20220625165018 86 0.0 0.0 0.00 0.00 0.00 32 1015.7
20220625164018 86 0.0 0.0 0.00 0.00 0.00 33 1015.8
20220625163018 85 0.0 0.0 0.00 0.00 0.00 35 1015.8
20220625162018 86 0.0 0.0 0.00 0.00 0.00 33 1015.8
20220625161018 85 0.0 0.0 0.00 0.00 0.00 34 1015.8
20220625160018 84 0.0 0.0 0.00 0.00 0.00 34 1015.8
20220625155018 83 0.0 0.0 0.00 0.00 0.00 34 1015.7
20220625154018 83 0.0 0.0 0.00 0.00 0.00 40 1015.7
20220625153018 82 0.0 0.0 0.00 0.00 0.00 38 1015.7
20220625152018 83 0.0 0.0 0.00 0.00 0.00 34 1015.5
20220625151018 82 0.0 0.0 0.00 0.00 0.00 37 1015.5
20220625150018 82 0.0 0.0 0.00 0.00 0.00 34 1015.5
20220625145018 81 0.0 0.0 0.00 0.00 0.00 40 1015.4
20220625144018 81 0.0 0.0 0.00 0.00 0.00 42 1015.5
20220625143018 80 0.0 0.0 0.00 0.00 0.00 45 1015.5
20220625142018 80 0.0 0.0 0.00 0.00 0.00 43 1015.6
20220625141020 79 0.0 0.0 0.00 0.00 0.00 47 1015.4
20220625140020 78 0.0 0.0 0.00 0.00 0.00 48 1015.4
20220625135020 77 0.0 0.0 0.00 0.00 0.00 54 1015.4
20220625134020 76 0.0 0.0 0.00 0.00 0.00 54 1015.4
20220625133020 75 0.0 0.0 0.00 0.00 0.00 56 1015.4
20220625132020 74 0.0 0.0 0.00 0.00 0.00 58 1015.4
20220625131020 73 0.0 0.0 0.00 0.00 0.00 60 1015.4
20220625130020 72 0.0 0.0 0.00 0.00 0.00 60 1015.4
20220625125020 70 0.0 0.0 0.00 0.00 0.00 62 1015.6
20220625124020 69 0.0 0.0 0.00 0.00 0.00 65 1015.6
20220625123019 67 0.0 0.0 0.00 0.00 0.00 67 1015.6
20220625122020 67 0.0 0.0 0.00 0.00 0.00 70 1015.4
20220625121020 66 0.0 0.0 0.00 0.00 0.00 72 1015.3